Left ArrowRight Arrow

Hourly Observations for June 16, 2024

Temp ( °F °C ) Dew Point ( °F °C ) Humidity (%) Winds ( mph kmh ) Pressure ( in mb ) Visibility ( mi km ) Precip ( " mm )
12:53 am 00:53 Mostly Cloudy 77 25 66 18.9 69 69 SE 7 11 30.04 1017 10 16 0.00 0.00
1:50 am 01:50 Cloudy 77 25 66 19 69 69 ENE 6 9 30.02 1016 10 16 0.00 0.00
1:53 am 01:53 Cloudy 77 25 66 18.9 69 69 ENE 6 9 30.02 1017 10 16 0.00 0.00
2:53 am 02:53 Cloudy 76 24.4 66 18.9 71 71 Calm 30.01 1016 10 16 0.00 0.00
3:26 am 03:26 Mostly Cloudy 77 25 68 20 74 74 Calm 30.02 1016 10 16 0.00 0.00
3:53 am 03:53 Cloudy with Light Rain 75 23.9 71 21.7 88 88 WSW 5 7 30.01 1016 10 16 0.01 0.13
4:39 am 04:39 Cloudy with Heavy Rain 73 22.8 70 21.1 90 90 SE 3 6 30.02 1017 2 3 0.11 2.79
4:53 am 04:53 Cloudy with Light Rain 73 22.8 70 21.1 90 90 E 6 9 30.02 1017 4 6 0.13 3.30
5:53 am 05:53 Cloudy with Light Rain 74 23.3 70 21.1 87 87 S 7 11 30.03 1017 8 13 0.01 0.13
6:53 am 06:53 Cloudy with Light Rain 73 22.8 69 20.6 87 87 ESE 12 19 30.04 1017 10 16 0.01 0.13
7:53 am 07:53 Mostly Cloudy 76 24.4 69 20.6 79 79 SSE 7 11 30.06 1018 10 16 0.01 0.13
8:53 am 08:53 Mostly Cloudy 77 25 69 20.6 77 77 SSW 6 9 30.06 1018 10 16 0.00 0.00
9:53 am 09:53 Partly Cloudy 79 26.1 68 20 69 69 Calm 30.06 1018 10 16 0.00 0.00
10:53 am 10:53 Mostly Cloudy 80 26.7 71 21.7 74 74 W 8 13 30.06 1018 10 16 0.00 0.00
11:53 am 11:53 Partly Cloudy 81 27.2 70 21.1 69 69 W 10 17 30.04 1017 10 16 0.00 0.00
12:53 pm 12:53 Mostly Sunny 83 28.3 69 20.6 63 63 W 10 17 30.01 1016 10 16 0.00 0.00
1:53 pm 13:53 Partly Cloudy 83 28.3 70 21.1 65 65 W 9 15 30.00 1016 10 16 0.00 0.00
2:53 pm 14:53 Mostly Sunny 84 28.9 70 21.1 63 63 WSW 10 17 29.99 1016 10 16 0.00 0.00
3:53 pm 15:53 Mostly Cloudy 82 27.8 68 20 63 63 SW 9 15 29.99 1016 10 16 0.00 0.00
4:53 pm 16:53 Partly Cloudy 83 28.3 69 20.6 63 63 SSW 12 19 29.98 1015 10 16 0.00 0.00
5:53 pm 17:53 Partly Cloudy 82 27.8 70 21.1 67 67 SSW 13 20 29.99 1016 10 16 0.00 0.00
6:53 pm 18:53 Mostly Cloudy 80 26.7 70 21.1 71 71 S 12 19 30.01 1016 10 16 0.00 0.00
7:53 pm 19:53 Cloudy 80 26.7 68 20 67 67 SSE 8 13 30.03 1017 10 16 0.00 0.00
8:53 pm 20:53 Cloudy 79 26.1 68 20 69 69 ESE 9 15 30.05 1018 10 16 0.00 0.00
9:53 pm 21:53 Cloudy 79 26.1 67 19.4 67 67 ESE 6 9 30.06 1018 10 16 0.00 0.00
10:53 pm 22:53 Cloudy 79 26.1 68 20 69 69 SE 6 9 30.06 1018 10 16 0.00 0.00
11:53 pm 23:53 Mostly Clear 78 25.6 66 18.9 67 67 SE 7 11 30.06 1018 10 16 0.00 0.00

Powered by Vaisala Xweather